GFSSW_sfc_30mbdewp_000.txt.gz
Dewpoint
54 54 54 54 54 55 55 55 56 56 56 56 56 57 56 58 57 54 34 29 33 51 47 35 39 38 44 41 47 51 46 42 43 41 41 41 49 54 56 61 58 58 61 65 66
53 53 53 53 53 54 55 55 55 55 55 56 56 58 57 58 53 40 39 41 44 55 37 30 17 25 30 35 38 44 44 43 43 45 42 43 45 49 55 57 57 60 62 65 66
52 52 53 53 53 53 54 54 54 54 55 56 56 58 58 57 44 27 51 47 53 50 29 25 21 22 27 29 30 38 39 43 43 46 47 48 50 53 54 56 58 58 60 65 66
52 52 52 52 53 53 53 54 54 54 54 55 56 58 58 53 5 29 55 60 58 42 31 23 23 28 29 27 27 37 40 42 45 48 46 46 49 47 53 56 58 59 62 64 65
51 52 52 52 52 53 53 54 54 54 54 55 57 58 52 37 23 30 53 59 53 34 27 22 24 31 29 26 25 36 40 43 45 44 45 47 45 51 54 57 57 58 60 61 64
52 53 53 53 53 53 53 54 54 53 54 55 57 57 44 19 21 33 41 48 34 28 22 22 24 30 27 22 21 39 42 44 44 46 47 43 46 48 56 57 57 57 58 59 61
52 52 52 53 52 52 53 53 52 52 53 54 57 55 47 22 26 36 36 32 27 24 18 21 21 25 24 21 23 38 40 40 44 46 48 50 49 49 55 57 57 57 58 58 59
51 52 52 52 52 52 53 52 52 53 54 55 58 55 30 37 39 33 26 28 24 23 20 15 24 24 21 21 23 31 32 35 41 46 48 49 48 50 55 56 56 57 57 58 58
51 51 51 52 52 52 52 51 52 55 55 58 54 49 34 47 42 34 31 26 20 20 18 16 17 19 19 23 21 27 27 34 39 42 46 47 49 50 52 53 54 55 56 57 58
51 50 51 51 52 52 51 50 51 57 57 57 53 43 38 33 37 32 31 27 15 10 9 10 13 20 27 23 20 24 28 33 35 37 42 47 48 50 51 52 52 53 54 55 56
50 50 50 51 51 51 49 39 29 39 53 39 37 35 34 34 37 27 27 25 15 10 7 12 14 15 23 26 24 22 31 32 33 33 47 46 49 50 52 53 53 54 55 56 56
50 50 51 51 50 50 49 27 22 32 29 34 39 41 38 37 37 34 24 24 17 6 10 11 14 19 26 28 25 22 22 32 34 33 37 48 48 50 51 53 54 55 56 57 59
50 51 51 51 50 49 37 29 32 32 29 28 29 30 30 32 33 31 21 23 17 8 10 11 15 21 27 27 26 23 24 30 31 34 39 47 47 48 50 52 52 55 57 57 60
50 51 51 50 31 41 26 26 33 30 25 26 27 27 30 31 29 29 23 23 9 10 11 14 15 20 27 26 25 20 19 27 33 33 33 41 40 44 47 47 48 52 55 56 59
51 51 51 49 44 39 22 33 31 31 22 24 29 30 26 27 25 22 19 15 13 7 10 11 13 16 20 24 21 18 17 17 34 33 33 37 36 41 43 42 44 49 53 54 57
51 50 50 46 47 41 40 37 30 25 22 28 22 23 19 25 24 18 14 14 13 11 11 11 16 20 20 21 19 17 15 14 31 29 30 35 33 37 42 41 41 45 52 53 56
50 49 49 46 24 34 34 22 24 22 26 23 18 21 16 20 22 20 11 9 9 10 10 14 12 16 19 17 16 16 13 10 9 16 15 22 35 32 42 42 40 42 51 52 55
49 49 48 47 47 43 32 19 23 23 20 22 22 20 19 20 20 21 15 8 10 12 12 11 10 15 16 14 13 12 13 10 8 15 15 22 17 15 36 43 43 43 49 51 54
49 46 43 44 45 40 27 14 20 24 26 23 21 19 19 18 20 20 19 11 11 12 10 11 12 15 15 14 13 12 14 17 16 23 21 19 22 32 36 42 41 42 46 49 52
46 44 41 38 44 33 24 8 19 23 23 21 19 20 18 18 17 20 19 15 12 12 12 10 8 12 14 14 15 12 16 15 19 15 15 18 22 25 40 41 43 42 42 45 51
43 35 33 42 36 29 12 12 11 13 13 19 19 18 18 17 17 18 17 14 12 12 11 10 13 10 15 13 11 19 17 18 19 19 16 15 17 32 39 43 44 44 44 44 49
41 17 35 38 30 29 22 18 12 9 11 13 17 18 18 19 16 18 15 13 14 12 10 11 11 8 10 15 15 17 17 20 16 17 21 19 20 36 38 40 44 44 47 47 46
38 36 33 30 29 27 29 27 23 18 12 12 15 16 18 18 20 22 23 21 16 13 11 12 11 10 13 15 17 16 20 23 22 23 20 18 23 35 36 37 39 39 40 43 47
40 33 34 31 28 26 28 28 28 29 26 23 21 18 19 20 24 24 23 22 22 14 18 15 11 10 10 14 17 13 17 21 20 19 20 21 24 32 33 35 36 37 40 43 46
41 38 31 29 28 23 28 30 29 29 31 30 24 32 32 27 23 28 35 34 30 20 21 13 9 19 15 15 19 15 15 21 19 19 18 18 24 30 33 35 36 38 40 43 46
41 37 38 32 27 27 24 29 25 24 29 28 34 35 35 32 35 34 34 34 32 32 24 20 11 14 11 17 14 14 16 20 21 22 22 21 25 32 36 40 39 39 40 41 45
41 41 40 31 30 29 28 28 24 23 33 38 38 34 34 33 33 33 36 35 35 32 29 18 18 19 13 19 20 16 20 18 20 28 22 19 21 33 36 38 38 37 37 38 40

GFSSW_sfc_30mbdewp_003.txt.gz
Dewpoint
53 53 53 53 53 54 54 55 55 55 55 56 56 56 58 58 57 53 34 31 31 48 52 53 56 48 48 42 47 50 41 39 41 42 45 52 55 60 61 61 58 60 62 63 68
52 52 52 53 53 53 54 54 54 54 55 55 56 56 58 59 53 40 38 43 45 50 35 32 27 28 31 37 44 45 43 41 44 43 48 50 54 56 59 58 59 61 63 66 67
52 52 52 52 52 53 53 54 54 54 54 55 56 56 58 58 41 22 44 51 53 56 32 30 22 20 25 29 33 44 41 44 43 45 44 47 51 54 57 56 59 60 63 65 66
51 51 52 52 52 52 53 53 53 53 54 54 56 57 58 53 10 23 54 52 60 53 34 25 21 20 29 28 29 28 41 43 43 47 45 47 51 55 56 57 60 63 64 65 65
51 51 52 52 52 52 53 53 53 53 54 54 55 57 51 34 24 35 48 58 59 44 30 22 23 30 30 29 27 25 39 41 44 45 47 48 50 53 55 58 61 64 65 65 66
51 52 52 52 52 52 53 53 53 53 53 54 55 57 44 25 22 35 44 55 43 35 29 24 17 29 29 24 21 38 42 42 44 44 46 50 53 54 57 59 60 64 65 65 66
51 52 52 52 52 51 52 53 52 52 53 55 55 56 44 29 27 30 39 39 31 32 22 24 21 21 26 25 24 40 39 41 42 45 47 49 49 54 57 58 60 62 63 64 65
51 51 51 51 51 52 52 52 52 52 55 55 56 56 33 34 41 42 32 23 25 26 23 17 25 24 25 24 35 39 38 39 43 46 48 48 47 56 57 57 57 58 60 62 63
51 51 51 51 51 51 52 51 52 57 56 56 54 49 36 41 44 42 31 24 23 22 21 18 16 19 19 21 33 32 37 38 42 46 47 48 49 56 57 56 56 57 58 59 60
51 50 50 51 51 51 51 51 50 55 57 57 54 44 35 27 37 34 33 26 21 14 13 10 12 15 25 23 24 34 33 39 40 44 44 48 48 55 57 56 56 57 57 58 59
51 50 51 51 51 51 49 38 28 32 51 32 32 35 33 36 36 34 29 26 19 7 8 9 12 14 15 25 23 29 28 37 40 40 45 45 48 53 55 55 55 56 57 57 58
51 51 51 51 51 50 49 26 25 30 25 30 32 34 36 37 33 30 30 25 18 8 7 10 11 13 18 26 24 21 17 29 33 40 43 47 48 49 52 53 54 54 55 56 57
51 51 51 51 50 47 35 23 32 29 27 27 28 30 32 37 32 30 30 24 18 11 7 7 10 17 22 25 25 24 23 22 30 39 46 47 47 48 51 51 52 53 54 55 56
51 51 51 49 30 42 30 28 33 30 25 25 27 26 28 29 29 31 29 24 17 17 10 8 9 15 23 21 25 23 23 23 30 35 34 44 37 47 49 51 53 54 55 56 58
51 51 50 49 45 37 23 34 32 31 19 21 28 29 29 25 25 23 26 21 21 11 12 7 12 13 17 23 25 23 23 20 25 31 36 42 36 42 48 49 51 53 54 56 59
50 50 49 47 46 43 42 37 31 22 17 23 28 25 26 25 22 19 24 19 19 14 10 7 14 15 15 17 23 23 18 17 28 31 31 39 35 36 46 47 49 50 53 56 58
49 49 48 46 28 37 34 21 20 18 22 19 20 21 19 22 19 21 17 16 15 13 9 10 9 14 19 18 20 18 16 14 21 29 29 33 36 33 43 46 48 49 50 55 57
49 49 48 47 47 44 28 15 21 20 20 21 20 18 14 20 21 21 15 17 14 12 11 9 6 12 15 16 17 16 16 14 10 18 25 27 34 34 37 44 47 47 48 53 55
48 44 43 44 47 41 25 11 18 23 26 23 19 18 18 18 18 20 18 11 12 12 10 11 10 13 16 15 16 16 14 14 13 22 19 20 24 25 34 38 44 44 45 50 53
45 42 39 44 44 32 20 7 15 23 22 18 19 19 16 18 18 17 18 19 10 11 12 11 10 13 13 16 15 14 17 14 18 11 12 18 20 18 30 35 43 43 42 48 53
41 25 24 45 36 25 6 10 9 11 6 13 19 19 18 17 17 17 17 16 18 14 12 11 11 10 12 12 13 19 15 17 17 18 12 12 16 27 24 33 42 43 43 46 51
40 8 35 38 31 26 17 16 12 9 11 13 13 13 14 16 16 16 15 16 18 17 12 12 11 9 9 14 15 14 14 15 13 17 19 18 17 27 31 39 44 43 43 46 50
37 35 38 30 27 27 29 27 27 27 27 18 13 15 20 20 15 15 17 19 25 19 13 13 10 8 9 13 18 16 19 20 20 22 20 16 18 33 38 40 46 45 45 45 47
38 28 33 31 29 25 23 22 24 30 31 31 27 26 25 25 25 25 24 25 29 17 20 15 11 9 8 10 15 16 19 22 19 17 19 20 20 30 36 37 42 45 47 47 46
38 36 34 29 28 27 23 25 25 26 26 29 30 28 32 30 29 28 31 33 37 33 26 13 10 11 10 10 15 15 17 22 18 17 17 19 20 28 33 36 39 42 43 45 47
40 39 39 37 31 25 24 23 26 24 24 29 29 34 36 32 33 30 31 32 36 35 30 17 11 15 10 12 11 11 15 19 20 20 19 20 22 29 34 39 39 39 40 41 45
39 41 40 38 31 27 26 27 27 27 26 26 38 38 36 35 36 35 35 34 36 38 35 20 15 14 10 16 16 16 17 20 23 25 21 19 21 29 34 36 36 38 40 41 45

GFSSW_sfc_30mbdewp_006.txt.gz
Dewpoint
53 53 53 53 53 53 54 54 55 55 55 55 56 56 56 57 57 52 28 30 34 55 68 67 61 57 63 52 51 50 41 39 41 45 47 54 57 59 62 61 60 62 62 64 68
52 52 52 53 53 53 53 54 54 54 54 55 55 56 56 57 52 39 35 44 48 54 42 46 43 45 41 37 44 46 42 41 43 44 49 53 57 59 59 58 59 61 65 68 68
52 52 52 52 52 53 53 53 53 54 54 54 55 56 56 58 37 19 42 52 55 52 32 32 25 30 27 31 39 44 40 42 44 44 52 52 56 57 56 56 60 60 65 67 68
51 51 51 51 52 52 52 53 53 53 54 54 55 56 57 53 19 24 55 56 61 52 31 27 20 20 25 26 28 35 40 43 44 48 51 51 54 56 55 55 59 62 65 67 67
50 51 51 51 51 52 52 52 53 53 53 54 54 55 52 33 28 28 41 63 64 50 31 25 20 23 27 30 29 28 29 42 45 45 48 51 53 55 54 59 62 63 65 65 66
50 51 51 51 51 51 52 53 53 52 53 54 55 55 45 24 28 31 50 58 50 39 31 23 22 29 29 29 24 27 39 44 45 46 48 50 54 55 57 62 63 63 64 65 65
50 50 51 51 51 51 52 52 52 52 53 55 54 56 45 27 29 37 40 45 41 31 29 25 23 26 26 25 25 42 41 43 45 46 50 52 51 52 58 62 63 63 64 65 65
51 51 50 50 50 51 52 52 51 52 57 55 55 55 35 37 38 42 40 28 29 31 25 22 23 19 22 25 39 39 40 39 43 46 51 48 45 55 59 60 62 63 64 65 66
51 51 51 51 51 52 51 51 51 56 56 56 54 48 36 42 37 41 37 27 24 26 25 19 22 19 21 24 36 35 37 38 42 45 48 48 47 56 58 59 61 63 63 64 65
51 51 51 51 51 51 51 51 51 55 56 56 54 43 38 30 35 35 34 25 20 20 21 18 13 19 21 28 33 36 37 38 41 43 47 47 48 56 57 57 59 60 60 62 63
51 51 51 51 51 51 49 38 29 31 46 31 33 36 33 31 35 34 30 26 13 10 11 11 12 14 20 22 34 35 38 38 40 43 45 46 48 55 56 56 56 57 58 60 60
51 51 51 50 50 49 47 22 30 28 18 23 26 29 30 35 30 30 30 28 23 20 9 13 10 15 21 24 26 35 34 37 36 39 44 46 47 55 56 55 56 56 57 57 59
50 50 50 49 49 44 35 25 33 28 19 22 27 27 28 32 29 28 30 25 21 21 9 9 10 15 21 24 24 29 28 25 34 42 46 47 46 51 55 56 56 56 57 57 57
50 50 49 48 29 42 29 34 34 31 22 23 26 27 32 34 29 31 30 28 18 20 11 7 9 14 22 25 26 23 24 23 33 39 35 43 34 47 50 53 53 54 55 56 57
49 49 48 47 44 36 25 39 35 30 16 20 26 29 29 25 22 27 29 26 26 17 15 12 8 12 21 21 25 21 25 25 32 36 38 43 35 35 49 49 50 52 53 54 55
48 48 48 46 45 42 42 40 31 21 15 19 29 24 27 27 22 23 26 25 25 20 12 15 13 15 11 22 25 22 18 24 29 33 31 34 38 33 47 47 48 51 53 54 55
47 48 47 45 26 40 36 19 18 16 20 16 20 21 19 22 23 20 22 22 22 20 19 13 8 14 18 17 23 19 19 17 19 26 24 33 39 34 38 47 46 49 52 54 56
47 48 46 46 46 44 28 9 16 18 17 22 21 19 13 20 20 20 17 23 20 17 17 12 5 9 15 16 17 19 19 17 13 16 25 34 35 35 39 41 47 48 51 53 55
47 43 42 42 47 41 17 -1 10 22 25 24 19 17 19 18 18 20 19 19 21 16 13 12 9 14 13 16 16 16 15 19 16 20 17 26 28 30 34 35 42 45 50 51 54
44 41 35 45 45 31 15 -4 7 21 21 12 16 19 14 18 16 16 17 19 15 18 14 12 10 12 12 16 16 15 18 15 16 12 13 18 20 23 26 31 35 42 47 49 53
39 21 28 46 35 25 7 3 4 12 14 7 18 18 18 13 16 17 16 17 17 14 14 14 12 10 13 11 11 16 15 17 17 16 12 11 17 24 21 26 29 36 45 48 50
39 2 32 37 28 25 15 12 13 12 13 13 18 18 15 13 11 15 16 15 18 18 15 12 12 10 10 14 15 14 14 16 13 14 19 16 13 23 24 28 36 36 45 45 49
36 34 36 32 26 27 28 28 26 25 24 25 21 16 17 20 19 19 16 17 17 18 20 17 11 8 8 10 16 14 18 17 18 18 16 13 14 27 30 34 41 42 44 45 49
37 20 33 30 29 25 22 19 23 27 28 28 29 27 25 24 25 22 22 28 32 33 38 29 14 10 9 8 11 13 16 19 16 14 16 18 15 20 31 34 39 44 44 45 48
38 32 37 33 31 34 26 22 22 23 26 28 27 29 28 27 28 24 23 24 33 38 35 18 15 12 13 12 14 13 15 19 17 17 15 16 20 20 28 32 36 42 47 46 45
38 38 38 37 37 27 26 23 27 27 25 24 28 30 33 29 30 29 30 31 30 38 35 25 13 13 12 11 12 12 15 21 21 21 20 19 20 23 29 37 38 40 45 46 46
38 39 39 35 36 31 26 28 28 30 28 26 27 29 33 38 34 36 36 35 38 33 37 34 18 14 11 12 11 10 11 13 17 21 20 19 19 25 29 34 34 39 43 44 45

GFSSW_sfc_30mbdewp_009.txt.gz
Dewpoint
52 53 53 53 53 53 54 54 54 54 55 55 55 56 57 56 56 53 35 29 37 72 68 65 58 63 63 57 55 50 42 39 40 46 47 54 53 59 59 60 59 60 60 59 65
52 52 52 52 52 52 53 53 54 54 54 55 55 56 56 56 53 40 39 44 58 70 58 51 49 54 46 38 44 44 43 40 42 45 48 53 53 58 58 58 57 61 63 65 66
51 51 51 52 52 52 53 53 53 53 53 54 55 55 56 57 39 23 49 56 62 64 51 43 44 35 27 33 39 44 40 42 43 44 50 52 54 57 56 55 56 59 63 65 65
51 51 51 51 52 52 52 52 52 53 53 54 54 55 56 53 19 20 59 52 52 57 36 30 30 25 21 19 31 36 40 41 43 47 50 51 54 55 55 51 56 61 64 64 64
50 51 51 51 51 51 52 52 52 53 53 53 54 55 51 32 27 29 49 64 60 48 27 25 22 20 16 26 27 30 29 38 43 48 49 53 53 53 55 55 59 62 64 64 64
50 51 51 51 51 51 52 53 53 52 53 54 55 54 44 22 27 39 57 59 56 42 30 25 20 22 20 30 29 27 34 40 44 48 50 50 53 53 54 60 61 62 63 63 63
50 50 51 51 51 51 52 52 52 52 53 55 55 54 42 25 30 35 41 46 50 40 29 24 23 24 28 27 26 43 41 44 45 47 49 51 52 51 55 60 61 61 62 63 64
50 50 50 51 51 51 52 52 51 52 55 57 55 54 35 38 38 41 40 34 38 34 28 26 24 19 20 29 40 39 41 38 44 47 51 47 40 51 58 59 59 60 61 62 63
50 50 51 51 52 51 51 50 52 55 56 56 54 48 36 42 38 39 40 25 28 34 31 23 25 20 21 26 36 38 34 38 42 46 49 46 42 52 58 58 58 59 60 61 62
50 50 50 51 51 51 50 50 52 56 56 56 55 45 40 32 33 35 37 24 22 26 23 18 18 12 22 27 23 33 36 38 39 44 47 46 45 54 57 57 58 60 60 61 62
50 50 50 50 50 49 49 38 34 33 45 35 33 37 34 33 33 34 31 27 17 22 18 19 12 7 14 27 29 32 37 36 41 44 44 45 45 53 56 57 57 59 60 61 61
49 49 49 49 49 49 44 16 29 27 16 18 21 25 28 29 24 28 31 29 21 20 12 15 9 13 17 22 29 36 35 36 40 43 43 45 44 50 55 55 56 57 59 60 61
49 49 49 48 48 42 36 27 33 30 15 17 22 22 25 26 24 22 28 28 26 25 14 8 7 14 21 21 23 33 34 36 36 41 45 44 40 47 54 55 56 56 57 57 58
49 48 48 46 31 40 30 36 36 32 20 21 24 27 32 30 27 27 25 28 22 23 18 12 9 11 16 21 22 22 34 37 38 37 34 41 32 41 47 53 55 55 56 56 57
48 47 48 46 42 34 27 38 35 30 12 20 24 29 33 30 21 28 29 28 25 22 19 16 9 13 11 18 25 24 30 31 35 35 37 41 36 32 48 48 52 54 54 55 55
47 47 47 45 44 40 40 39 32 22 13 19 29 25 26 27 24 28 26 26 27 24 17 19 15 9 14 21 26 26 27 30 36 33 27 29 35 26 44 45 46 50 53 54 55
46 46 46 44 31 39 37 21 16 15 20 16 21 21 19 23 24 22 22 23 24 24 23 21 17 13 13 17 25 23 22 22 24 26 22 31 37 30 36 43 44 46 50 52 54
45 46 46 45 45 42 29 7 11 15 14 20 21 20 14 19 23 18 21 20 26 26 22 21 16 17 14 11 20 22 20 20 19 20 21 34 31 29 37 38 44 47 49 51 52
46 43 41 41 45 42 16 -8 2 15 22 22 20 16 14 18 19 19 21 19 23 24 20 18 18 13 13 17 19 22 20 21 21 21 19 23 33 31 34 37 40 43 47 50 52
42 40 34 43 45 34 7 -11 -2 20 24 15 15 19 16 18 14 16 18 21 23 24 25 19 15 9 10 13 19 18 20 17 20 19 18 19 23 17 28 29 38 42 45 48 52
40 24 35 46 38 25 6 -1 -1 8 20 11 13 17 20 14 15 15 15 18 18 20 23 22 14 8 13 10 7 15 15 21 19 19 17 17 17 28 25 30 31 39 44 47 51
38 8 34 40 30 23 16 15 11 8 4 4 14 16 14 14 11 12 13 17 19 17 16 19 19 17 12 13 13 11 15 18 16 21 19 18 16 26 29 32 34 31 41 46 52
34 33 34 34 20 24 28 26 24 19 17 17 9 14 14 11 11 16 15 17 19 17 21 19 17 16 15 16 14 14 13 16 17 19 21 15 15 27 30 32 33 38 43 48 52
36 24 30 32 30 28 29 24 22 26 25 24 21 22 25 25 26 24 21 22 25 18 25 29 28 23 19 17 14 11 13 16 16 14 15 19 16 22 23 30 36 38 46 49 51
36 32 38 33 32 36 30 24 21 21 25 27 29 26 26 25 24 24 26 25 24 25 37 34 27 27 26 25 19 15 9 13 17 16 15 15 21 20 26 29 33 38 48 49 51
35 36 36 36 36 34 29 24 24 28 28 23 26 24 25 29 28 24 27 25 29 36 37 28 32 23 19 24 20 15 14 11 15 14 20 16 23 25 31 36 40 41 49 49 49
38 37 35 29 31 30 28 27 26 29 27 29 27 27 27 29 33 35 34 35 37 38 41 40 32 32 26 18 17 15 16 15 16 18 19 17 21 28 29 33 35 40 48 50 50

GFSSW_sfc_30mbdewp_015.txt.gz
Dewpoint
52 52 53 53 53 53 54 54 54 54 54 55 55 56 57 57 56 53 39 33 36 63 67 53 52 47 48 45 44 44 43 35 32 39 34 36 38 43 47 49 48 50 53 57 60
51 52 52 52 53 53 53 54 54 54 54 55 55 56 56 57 44 30 40 45 54 62 52 44 42 40 42 41 42 39 48 40 33 37 37 38 36 41 44 47 49 51 54 58 60
51 51 52 52 52 53 53 53 53 53 54 54 55 55 56 56 36 21 50 58 63 65 37 38 36 39 37 36 32 32 44 42 34 34 40 39 38 40 41 43 47 50 54 56 58
51 51 51 51 52 52 52 53 53 53 53 54 54 55 56 46 21 35 50 55 61 53 41 35 32 34 35 30 26 27 31 30 31 36 36 38 40 38 38 41 46 51 54 56 57
50 50 50 50 51 51 52 53 53 53 53 53 54 55 51 32 24 44 53 61 56 46 40 30 30 28 31 23 23 25 28 26 27 33 35 39 39 38 37 42 46 51 53 55 56
50 50 51 51 50 50 51 52 52 51 52 53 54 55 44 23 19 38 32 46 42 41 31 28 27 24 25 22 22 25 25 26 27 31 36 38 39 42 39 44 47 52 53 54 54
50 50 51 50 49 49 50 51 50 51 52 54 55 53 34 26 19 22 35 34 35 34 31 23 24 17 18 19 20 25 26 30 29 32 35 37 38 39 40 46 48 51 52 52 53
49 50 50 50 49 50 50 50 50 52 56 56 56 49 31 25 27 22 23 23 28 31 29 21 17 17 17 20 22 22 25 27 29 32 37 39 36 39 43 45 47 49 52 52 52
50 50 50 50 49 49 49 49 50 55 57 57 53 45 29 35 30 25 22 25 26 26 30 23 21 15 17 16 20 24 22 25 29 32 38 39 48 40 44 44 44 48 49 51 52
50 50 50 49 49 48 48 48 50 56 56 53 48 41 34 28 28 29 29 28 23 26 25 23 18 15 14 18 18 24 24 25 32 31 38 36 41 41 45 44 42 45 47 49 51
50 50 49 48 48 47 46 32 39 45 46 34 32 26 26 24 32 27 29 25 22 23 16 16 10 9 15 19 21 23 24 23 27 30 35 35 36 39 45 45 43 45 46 47 49
49 49 49 48 47 46 45 21 24 20 15 16 17 19 22 23 22 24 29 19 18 19 16 11 9 8 15 19 20 21 23 23 26 30 33 34 35 38 44 45 46 46 46 47 48
49 49 49 47 45 44 20 26 23 20 15 12 13 13 13 14 15 19 23 24 14 16 14 6 6 7 12 17 20 20 21 22 24 34 35 33 34 35 38 44 46 46 47 48 47
49 49 48 46 34 24 22 25 20 20 16 10 14 14 15 14 13 15 18 23 19 14 13 9 6 4 7 12 17 19 21 22 23 31 32 30 28 33 34 37 43 46 47 48 47
49 49 47 46 36 26 18 19 19 22 9 15 17 21 21 19 22 21 20 18 20 17 13 11 7 5 5 8 14 17 21 23 22 27 35 27 26 27 32 33 36 42 46 47 47
49 47 46 34 35 33 27 23 20 18 11 14 20 22 23 22 20 21 19 19 20 18 16 12 11 7 5 6 13 15 19 22 21 22 24 29 28 30 33 31 33 35 42 47 48
48 46 44 39 24 25 23 17 10 10 14 12 14 17 18 17 17 19 18 15 15 16 16 15 12 11 5 5 8 14 15 19 19 19 20 26 26 34 30 30 32 31 35 43 48
47 44 39 34 34 32 26 11 6 11 11 10 11 16 14 13 15 17 17 14 15 17 15 15 12 13 10 5 5 9 13 16 18 18 19 21 23 24 31 29 29 29 28 35 45
46 32 27 26 32 30 23 4 7 11 11 10 11 11 13 12 10 13 17 15 14 16 15 15 15 15 11 8 4 4 8 16 17 20 20 20 22 25 29 29 29 28 27 29 42
40 35 24 26 35 32 20 12 8 8 8 7 8 10 11 13 11 12 14 16 13 14 17 16 16 16 11 10 7 3 7 11 18 19 19 18 19 22 26 28 28 28 26 28 37
40 22 30 35 36 32 20 13 11 10 7 5 8 10 9 10 12 13 11 13 15 14 13 15 17 17 16 12 9 5 3 11 16 19 18 19 20 21 26 28 26 27 25 27 33
32 24 27 33 25 24 21 21 18 12 8 4 3 11 13 10 9 10 12 12 13 15 14 17 18 19 16 16 12 9 5 7 16 20 19 19 18 22 22 24 25 25 25 27 29
31 27 25 20 16 12 15 18 17 15 13 8 2 3 9 10 12 13 13 13 15 16 16 17 19 18 20 14 12 11 8 5 8 18 22 20 19 21 22 23 25 25 25 25 31
34 23 19 22 22 14 12 14 17 18 15 15 10 5 2 6 10 13 14 14 15 14 26 21 21 20 19 19 13 10 7 6 7 9 17 19 21 22 22 23 24 25 26 27 27
33 25 22 22 22 24 30 31 26 30 28 21 16 12 6 3 7 7 11 14 14 15 15 18 20 21 21 21 18 10 5 5 5 11 12 15 18 22 23 23 23 24 24 24 24
34 29 29 26 26 24 25 23 15 18 24 26 24 18 14 9 6 6 8 14 15 13 17 18 20 22 20 19 17 16 15 10 8 6 8 10 13 18 20 25 25 23 24 24 24
37 37 33 26 23 20 17 23 22 20 23 29 31 34 31 25 28 28 27 13 13 20 20 20 22 21 22 24 23 19 17 17 16 13 11 9 11 14 17 22 23 25 25 26 26

GFSSW_sfc_30mbdewp_021.txt.gz
Dewpoint
52 52 52 52 51 51 52 52 53 53 53 54 55 56 57 57 56 49 39 35 39 54 60 55 55 53 54 59 62 59 51 48 44 43 34 42 46 50 53 55 58 57 61 63 63
51 52 52 52 51 51 51 51 52 52 52 53 54 55 56 57 51 34 31 40 45 58 42 35 40 49 46 48 57 52 48 43 42 45 37 44 48 49 49 53 56 57 61 63 63
50 50 50 50 50 50 51 51 51 51 51 52 53 54 56 56 42 25 51 45 44 57 39 28 27 33 40 41 42 48 43 44 45 42 42 36 38 43 44 52 54 56 60 62 62
49 49 49 50 50 51 51 51 51 51 51 52 53 54 56 53 12 29 55 52 57 58 38 27 22 25 28 33 34 41 40 38 37 44 37 36 37 41 42 51 55 55 55 62 61
49 50 50 50 50 51 51 51 52 52 51 52 53 54 51 40 32 31 45 60 56 45 37 30 24 26 27 31 32 35 37 37 37 40 41 39 38 42 45 54 56 56 55 59 61
50 50 51 51 51 51 51 51 51 51 50 51 53 55 49 17 20 22 46 52 44 40 33 30 28 28 29 30 30 33 32 27 34 39 41 39 38 42 47 55 56 56 56 56 55
51 51 51 51 51 50 51 51 50 49 50 51 55 54 44 19 21 35 39 43 39 35 32 31 30 29 28 29 30 28 27 25 25 25 39 43 41 39 46 52 55 56 56 56 56
51 50 50 51 51 51 50 50 49 49 50 53 57 51 34 26 27 24 21 23 32 30 32 29 28 27 26 26 26 24 22 20 23 26 34 43 43 42 43 50 52 54 55 56 56
51 50 50 50 50 50 49 49 49 50 52 57 54 51 38 35 29 23 23 22 28 30 31 29 26 24 20 20 22 19 18 19 20 26 32 40 41 38 40 47 48 52 52 54 55
50 50 50 49 49 49 49 47 47 53 56 55 51 46 45 32 27 27 26 24 22 24 20 26 25 22 19 18 18 17 17 18 20 28 37 40 38 41 42 43 47 49 50 52 53
50 49 49 49 49 48 45 41 33 39 48 44 41 37 27 28 29 28 25 23 18 16 17 21 22 20 19 14 18 18 18 19 20 30 42 41 39 38 40 42 43 48 48 50 52
50 49 49 49 49 46 47 37 25 21 17 17 20 31 36 37 34 26 24 19 18 14 20 19 19 22 20 17 14 16 18 19 21 32 36 43 40 40 39 38 43 45 48 49 51
50 49 49 49 46 45 31 27 24 18 13 12 13 13 14 21 30 27 24 19 17 19 21 18 21 22 19 17 17 16 17 18 20 30 38 45 42 44 39 41 44 44 46 49 49
50 49 49 49 37 35 31 31 27 19 13 13 12 11 12 13 20 30 26 23 23 20 19 19 20 19 18 14 14 17 18 19 20 23 30 41 37 43 39 41 43 43 43 46 49
50 49 49 48 42 38 33 34 30 21 12 16 13 13 11 10 18 26 28 22 23 21 17 16 19 17 14 11 9 14 19 19 20 20 32 31 30 41 43 42 43 42 43 43 45
50 49 48 42 39 38 36 33 26 15 13 16 12 9 8 9 12 12 24 19 19 23 21 15 16 16 16 13 7 8 15 18 20 20 22 30 31 34 39 41 42 42 44 44 44
50 48 46 44 36 31 37 29 13 12 17 16 13 13 8 8 8 9 11 13 11 14 15 20 17 13 15 12 8 6 6 12 15 17 18 26 30 33 37 38 43 43 43 45 46
49 46 43 41 41 41 37 23 14 17 15 17 16 16 14 11 9 9 9 10 11 12 14 14 17 19 15 13 8 5 4 7 13 15 17 22 27 32 36 36 43 43 42 44 45
48 39 37 35 36 38 32 23 15 18 19 18 18 14 15 17 16 10 8 14 11 10 12 13 15 20 18 15 11 9 3 4 7 13 17 19 20 22 36 35 38 39 39 41 41
43 39 38 37 37 33 28 24 22 22 23 22 19 17 15 15 14 17 12 12 14 12 12 15 17 19 19 16 13 9 10 4 3 4 9 14 18 21 26 35 39 38 39 40 41
42 33 29 27 30 28 24 25 25 25 24 23 22 21 20 18 16 14 13 17 16 17 15 14 15 15 18 15 12 11 6 6 5 5 7 13 15 21 26 38 39 38 37 36 40
36 30 28 30 24 25 24 25 26 24 23 23 24 24 23 23 20 17 14 12 15 16 16 16 14 13 15 17 15 12 11 8 7 9 12 8 10 20 19 36 37 37 36 37 38
34 32 32 29 21 21 22 21 20 17 17 17 18 18 21 22 21 21 19 18 13 12 16 17 14 12 13 14 15 12 12 11 8 11 10 14 11 12 14 29 26 35 39 37 38
37 28 25 27 25 21 20 26 28 30 28 26 26 28 27 25 25 24 23 22 17 11 21 29 15 12 12 14 17 19 14 14 10 7 7 6 7 10 24 32 22 27 34 33 40
37 31 28 28 30 28 27 33 26 23 26 28 29 32 32 29 32 29 32 33 31 30 24 20 20 16 15 16 18 15 19 14 12 8 10 10 8 11 14 34 35 34 34 35 36
35 31 33 33 29 28 24 20 17 22 26 27 28 33 33 34 35 33 31 32 32 31 30 28 24 22 19 16 13 13 17 19 12 12 14 14 14 19 21 32 36 35 35 30 32
38 39 38 34 28 26 24 24 27 29 32 32 26 26 30 29 33 35 33 32 32 32 31 28 25 23 18 21 22 15 13 18 21 17 16 13 13 16 16 22 34 38 34 30 32

GFSSW_sfc_30mbdewp_024.txt.gz
Dewpoint
51 51 51 51 51 51 52 52 52 52 52 52 53 54 56 57 56 53 31 28 36 70 72 68 65 63 65 63 63 59 48 43 43 43 49 53 55 57 58 59 58 60 60 62 63
51 50 50 51 51 51 52 52 52 52 52 52 53 54 55 56 52 37 30 38 45 61 47 62 57 57 61 60 59 52 48 45 43 44 48 49 54 55 57 58 59 60 61 62 62
50 50 50 50 51 51 51 51 51 51 51 52 53 54 55 56 41 19 52 49 51 60 44 38 45 49 48 56 57 53 47 46 45 45 48 50 53 55 57 57 59 60 61 61 62
50 50 50 50 50 51 51 51 51 51 51 51 52 53 55 54 6 23 54 58 55 56 43 39 29 24 26 41 52 49 49 45 45 45 44 48 54 54 55 54 58 62 62 62 62
50 50 50 50 50 51 51 51 52 51 51 51 52 54 51 37 24 19 45 62 61 51 41 36 28 23 23 26 28 40 38 44 44 41 42 42 44 53 53 56 59 62 62 62 62
51 51 51 51 51 51 51 52 51 51 50 50 52 54 45 7 12 21 26 45 40 43 38 34 28 25 25 27 27 30 31 32 36 40 40 38 41 46 53 56 59 61 62 62 62
51 51 51 51 51 51 51 51 51 50 50 51 52 54 47 12 18 24 31 40 42 39 33 34 29 27 28 27 29 30 27 27 25 29 40 41 44 50 55 55 56 60 61 62 62
51 51 50 50 50 50 50 50 50 49 51 52 53 54 32 33 30 25 23 30 35 39 37 33 32 29 28 28 25 23 23 22 23 41 42 38 41 53 55 54 54 57 61 61 61
50 50 50 50 50 50 49 49 49 51 53 55 54 51 27 42 39 31 24 24 28 29 33 32 29 27 26 22 20 22 21 20 20 35 42 41 40 44 55 55 55 54 55 58 57
51 50 50 50 49 49 49 48 48 53 54 56 53 44 39 26 39 27 23 21 22 26 30 30 28 25 23 20 19 21 20 18 18 26 41 41 40 43 54 55 55 55 55 55 55
51 51 50 50 49 48 47 43 27 31 48 35 40 36 33 33 34 28 23 22 24 23 24 22 25 24 22 22 18 20 20 18 19 22 38 39 39 40 52 53 54 55 55 55 55
51 51 50 49 49 47 47 34 32 27 21 19 27 31 35 35 35 36 26 23 23 19 17 17 17 22 23 21 18 16 16 18 19 20 37 40 39 38 47 49 52 52 53 54 55
50 50 50 49 47 41 35 29 32 31 17 14 15 16 17 29 31 32 31 24 22 17 15 15 18 21 22 22 18 15 13 15 16 19 44 41 39 41 41 41 46 51 52 53 53
50 50 50 48 33 41 35 34 34 32 15 15 13 12 13 15 18 25 31 22 17 18 15 16 20 20 19 21 20 16 15 15 16 18 21 39 31 39 41 40 41 46 49 51 52
50 50 49 48 43 39 29 35 35 23 16 19 14 14 13 11 13 18 24 22 19 17 17 19 20 20 20 21 21 17 18 18 18 18 19 23 33 35 41 41 40 43 47 49 51
50 50 49 44 42 40 39 38 31 13 13 16 14 9 11 11 13 20 24 28 23 23 20 20 20 20 18 20 21 17 13 12 18 19 17 20 28 34 37 39 39 42 44 47 49
50 49 47 44 36 37 40 33 12 12 17 17 18 18 9 8 9 11 25 27 22 19 21 22 20 16 19 18 17 14 9 6 7 12 15 19 31 32 37 41 39 41 44 44 48
49 48 44 40 44 43 37 23 13 16 17 20 21 19 14 8 7 7 9 26 25 16 15 19 19 20 17 15 15 13 8 5 5 10 14 18 23 28 35 41 42 42 44 44 44
48 41 40 38 37 40 33 21 17 18 22 23 22 17 16 18 20 13 7 9 23 19 12 14 16 19 20 19 14 13 7 6 5 13 10 15 20 25 32 35 42 43 44 44 43
45 41 39 39 37 37 31 25 23 25 25 24 21 20 22 23 22 22 18 12 8 10 14 13 12 16 15 20 20 14 12 5 4 1 3 7 15 17 21 30 36 40 43 44 44
42 35 33 32 28 33 28 26 25 25 26 24 23 22 22 23 23 22 22 17 15 14 12 11 12 12 17 15 17 17 13 8 5 3 1 5 6 14 17 24 30 41 43 44 46
39 31 32 32 24 25 28 26 26 25 25 25 23 20 18 23 19 19 22 22 22 22 19 14 10 9 10 14 18 18 15 10 6 5 5 3 4 16 17 22 28 37 42 43 44
37 35 34 31 24 25 27 27 28 28 28 27 26 25 31 28 26 23 28 27 33 31 26 32 13 9 10 13 14 15 16 13 9 8 6 7 6 11 12 16 37 38 39 38 40
37 31 29 29 31 29 28 29 29 30 27 27 27 32 32 31 30 31 32 33 33 32 36 29 26 17 13 13 12 12 13 13 9 8 7 7 8 11 12 15 24 22 28 38 39
37 32 32 28 29 31 29 28 27 26 27 28 28 29 32 31 33 30 34 34 33 33 31 32 25 21 19 17 13 13 15 13 12 10 8 9 8 8 9 9 11 14 35 39 38
35 34 35 33 33 29 27 26 31 33 31 29 29 30 28 28 29 29 32 30 30 32 31 32 27 26 23 21 14 12 14 15 14 12 10 10 9 10 10 14 18 20 23 36 35
40 40 38 33 31 27 26 25 25 29 34 32 28 30 28 26 30 31 31 31 31 31 29 31 29 25 21 22 14 13 15 17 17 17 13 10 12 16 16 19 22 23 38 37 35

GFSSW_sfc_30mbdewp_027.txt.gz
Dewpoint
51 51 51 51 51 52 52 52 52 52 52 52 53 53 55 56 56 53 25 24 34 74 74 72 67 66 66 65 63 59 49 46 47 49 49 56 56 57 59 58 57 59 60 61 65
51 50 50 51 51 51 52 52 52 52 52 52 52 53 54 56 52 37 28 42 47 72 69 67 64 66 65 62 61 56 49 44 45 46 52 55 56 56 57 56 59 59 61 64 65
50 50 50 50 50 50 51 51 52 52 52 52 52 53 54 56 37 13 53 50 63 71 62 65 62 62 61 59 59 54 52 49 46 46 53 55 55 57 57 55 59 58 61 62 63
50 50 50 50 50 50 51 51 51 51 51 51 52 53 55 53 6 18 62 66 62 64 51 55 49 55 50 53 56 52 52 51 48 46 47 53 55 55 56 55 59 59 61 62 62
50 50 50 50 50 50 50 50 51 51 51 51 51 53 51 36 14 11 57 62 62 48 40 37 34 47 39 28 47 52 50 46 49 49 45 53 54 55 56 57 60 60 61 61 61
51 51 51 51 51 50 51 51 51 50 50 51 51 53 44 6 12 24 31 54 52 47 40 35 33 30 26 24 27 30 39 36 37 37 44 52 53 54 57 58 60 61 60 61 61
51 51 51 51 51 51 51 50 50 50 50 51 52 52 47 9 15 22 30 39 50 43 38 37 32 26 24 22 26 28 28 30 29 29 41 48 51 52 55 59 60 61 61 61 61
51 51 51 51 51 51 50 49 50 50 52 53 53 52 23 33 33 24 22 19 37 41 32 35 34 28 28 29 27 24 23 23 28 36 37 43 42 51 55 58 60 61 61 61 62
51 51 51 51 51 50 49 49 50 53 54 54 53 50 19 38 41 33 25 17 31 39 38 35 32 29 26 24 24 22 22 23 22 36 41 39 41 53 56 57 59 60 61 61 62
51 51 51 51 50 50 48 49 49 54 56 55 53 42 37 22 41 33 28 22 26 31 29 33 30 26 24 22 21 21 20 21 19 25 39 40 42 53 55 56 59 59 60 61 61
51 51 50 50 50 48 48 42 30 29 45 37 41 36 33 32 36 31 24 21 23 26 24 28 28 26 25 23 21 20 20 21 21 26 34 37 40 53 54 54 54 58 60 60 61
51 51 50 50 49 48 42 29 31 31 27 26 25 26 30 32 26 26 23 20 21 20 24 23 25 27 26 24 23 21 19 18 19 22 36 36 39 45 54 54 54 54 56 59 60
50 50 50 50 48 39 38 32 34 34 23 18 19 19 18 27 27 24 23 21 21 20 19 23 21 22 24 23 21 20 19 18 18 19 38 40 39 41 53 54 55 55 55 55 56
50 50 49 49 32 41 32 35 36 36 16 16 15 14 17 27 26 25 31 22 21 19 19 17 18 18 20 21 22 20 19 17 15 16 15 38 35 39 47 52 53 54 55 55 55
50 49 48 48 42 38 29 37 39 25 18 22 15 14 15 15 14 24 30 28 20 21 18 17 15 15 18 19 22 21 21 18 18 16 16 21 32 34 44 47 47 50 53 54 55
49 48 47 44 43 40 40 40 29 16 17 18 15 12 12 12 11 20 26 27 23 18 19 19 21 16 18 20 19 21 19 15 17 18 15 17 19 18 39 41 43 43 49 52 53
48 47 46 45 34 39 40 33 14 15 19 18 20 21 19 10 9 17 19 24 22 18 16 17 16 20 20 19 21 21 17 15 12 12 12 14 19 19 29 40 41 41 43 48 51
47 46 44 40 41 43 38 23 14 16 15 24 23 21 16 20 12 13 21 22 24 20 19 19 19 18 18 19 18 18 17 13 9 8 11 17 16 20 26 34 42 42 42 43 48
47 40 41 39 39 40 32 20 16 18 24 24 23 19 20 23 22 21 18 22 26 21 18 19 20 22 22 18 18 17 15 15 10 15 11 14 17 20 25 31 36 41 41 43 45
43 40 39 40 38 37 31 22 22 25 25 24 22 22 21 22 22 22 22 19 16 25 20 16 16 18 20 22 17 16 13 11 7 10 8 6 10 12 22 24 31 39 41 43 45
39 33 32 33 33 34 28 28 26 25 25 23 23 22 21 20 22 19 21 23 29 28 25 18 15 14 17 17 19 19 13 11 10 7 6 5 5 9 16 22 27 35 42 44 45
38 28 30 35 25 26 27 28 28 27 28 26 25 24 24 26 25 20 19 25 32 33 30 30 17 14 16 16 16 19 18 15 10 8 6 5 5 14 14 17 23 25 35 42 45
34 34 37 31 28 25 28 28 29 28 27 27 25 27 32 28 22 30 31 33 34 32 36 35 25 12 10 10 12 15 17 17 16 13 11 5 6 11 12 16 25 27 36 40 44
36 29 31 30 32 30 28 28 29 31 27 28 28 33 31 30 31 30 30 34 32 31 37 33 27 23 15 13 14 11 14 17 14 13 12 11 9 11 11 11 12 30 31 39 43
37 31 33 28 29 31 29 28 31 31 33 30 28 29 31 29 32 31 32 31 30 33 30 31 27 26 26 26 24 20 14 12 15 15 13 13 10 9 12 13 15 15 18 27 35
35 34 36 33 32 30 27 27 30 26 30 31 32 29 29 27 27 26 30 30 29 30 27 31 27 29 26 23 20 18 17 16 13 14 14 13 11 11 11 12 12 10 10 21 31
41 40 37 33 32 30 27 26 26 28 30 36 31 28 27 29 31 31 32 31 30 30 28 29 30 28 24 24 24 18 16 16 15 14 14 12 13 12 11 11 11 12 16 22 23

GFSSW_sfc_30mbdewp_030.txt.gz
Dewpoint
51 51 51 51 51 51 52 52 52 53 53 53 53 53 54 55 55 53 23 20 30 65 73 71 68 65 67 65 62 58 49 46 48 49 50 57 56 58 59 58 58 59 60 61 66
50 50 50 50 50 51 51 52 52 52 52 52 53 53 54 55 53 38 31 41 51 74 71 67 65 64 64 64 62 55 50 48 47 48 49 56 56 57 57 56 58 59 61 64 66
50 50 50 50 50 50 50 51 51 51 51 52 52 53 53 55 38 13 48 49 65 74 68 66 65 64 61 61 61 56 54 51 48 52 53 56 56 57 56 54 58 59 61 64 65
50 50 50 50 50 50 51 51 51 51 51 51 52 52 53 53 8 39 63 60 69 69 65 64 64 62 59 58 59 55 54 53 51 47 54 55 56 56 54 53 57 60 62 64 63
51 51 51 50 50 50 50 50 51 51 51 51 52 52 51 35 14 57 63 60 69 60 61 60 61 60 48 49 55 54 50 49 49 49 48 55 55 55 56 56 59 60 63 63 63
52 52 52 52 51 51 51 51 51 50 51 51 52 52 44 2 10 25 56 62 67 55 54 49 52 54 36 38 45 41 46 44 45 41 44 48 55 55 56 59 58 60 62 62 63
52 52 52 52 51 51 51 51 50 50 51 52 52 51 46 3 16 24 57 53 57 48 41 38 35 42 32 27 25 27 26 28 30 32 34 47 52 54 56 59 58 59 60 62 62
51 51 51 51 51 51 50 50 50 51 54 55 53 51 17 29 33 25 27 44 48 47 37 38 34 31 26 27 26 24 25 23 25 31 31 49 43 53 57 59 59 59 60 60 61
51 51 51 51 50 50 49 49 51 55 54 54 51 48 14 37 37 29 20 28 42 44 40 35 33 29 27 23 20 23 23 23 24 26 39 45 40 49 56 58 59 59 59 60 60
51 51 50 50 50 49 48 49 50 55 53 53 52 41 35 24 37 36 27 23 28 33 36 34 31 28 26 22 12 16 21 21 21 27 40 41 40 49 56 58 58 59 60 60 61
50 50 50 49 49 47 46 38 32 31 36 44 42 35 32 31 34 30 26 22 30 30 27 31 29 26 26 22 19 22 22 22 21 25 39 39 39 52 55 56 58 59 60 60 61
50 50 49 48 47 47 39 31 30 31 28 29 28 29 36 31 25 27 23 18 22 23 26 26 25 29 28 24 22 21 21 21 20 21 30 31 35 51 55 55 57 58 59 60 61
50 49 49 48 47 39 38 32 35 35 28 23 26 25 24 27 25 23 21 21 21 21 25 23 24 28 28 25 23 22 22 21 20 19 31 36 34 41 54 54 56 58 59 59 60
50 49 48 47 30 41 27 36 37 38 20 19 17 16 24 25 22 26 23 22 22 22 20 22 23 26 27 26 24 21 21 20 18 16 16 34 24 38 46 53 53 54 57 59 60
50 49 47 47 41 35 28 39 38 28 16 23 14 15 23 19 18 23 29 23 21 20 20 19 19 21 23 24 23 23 22 19 17 15 15 19 24 27 41 50 53 54 54 55 57
50 49 47 44 43 41 41 40 31 19 18 19 16 13 16 15 13 24 25 28 23 20 19 19 20 21 20 20 22 22 19 17 19 18 16 17 19 19 36 42 51 53 55 55 56
49 48 46 45 34 40 42 33 16 17 21 20 21 23 21 16 11 21 22 25 20 18 17 18 18 19 18 17 20 20 19 17 15 15 15 17 17 18 27 40 46 49 52 54 55
48 47 42 41 41 40 38 20 15 17 17 25 24 23 19 23 21 20 21 21 24 20 18 17 16 19 20 16 17 19 18 16 12 12 14 17 15 17 20 34 43 45 47 49 52
48 41 38 38 37 39 32 15 16 19 25 24 23 21 21 22 22 21 19 21 25 21 18 17 17 22 18 20 16 18 18 17 12 14 10 13 16 18 22 24 36 40 43 44 45
43 39 35 38 35 36 31 22 23 26 25 24 22 22 20 20 22 19 21 30 27 28 26 19 18 21 19 18 19 17 17 17 14 12 10 10 9 12 22 21 27 35 40 42 43
38 32 30 36 35 33 23 28 28 29 28 25 23 23 22 23 24 19 20 31 32 32 31 25 16 14 21 20 17 17 14 14 16 13 9 8 9 13 14 23 22 26 36 41 43
35 26 30 33 26 27 24 26 30 31 28 27 26 26 26 27 24 23 27 32 32 34 33 34 20 18 16 17 21 19 17 13 12 11 10 10 9 12 13 17 26 25 30 41 42
35 33 36 32 26 27 28 27 27 31 31 27 26 32 31 29 22 30 30 34 31 34 35 31 26 15 15 18 16 18 20 15 14 13 11 9 10 11 12 13 14 17 25 35 41
34 27 31 32 31 30 29 27 28 32 34 33 29 31 30 29 32 28 32 33 30 35 36 33 28 23 19 20 24 18 15 18 16 13 13 12 11 11 10 11 12 17 25 30 39
35 31 33 26 28 30 30 27 28 28 31 35 34 29 28 27 27 28 29 29 29 32 29 30 25 27 27 27 26 24 22 21 16 17 15 15 15 16 14 13 12 13 26 30 30
33 33 35 32 32 31 27 26 26 25 29 29 32 32 29 27 28 26 27 29 28 30 27 30 24 29 26 25 25 24 24 22 20 17 16 17 15 15 15 15 14 15 17 19 21
40 40 36 34 32 31 28 28 27 28 29 35 34 33 27 29 31 31 31 29 29 30 28 27 27 26 21 26 24 19 18 19 18 17 15 14 16 16 13 14 14 14 15 15 16

GFSSW_sfc_30mbdewp_033.txt.gz
Dewpoint
51 51 51 51 51 51 51 51 52 52 52 52 53 53 54 54 54 53 30 19 31 63 68 66 65 65 67 64 63 57 48 47 45 48 48 57 56 57 58 57 56 59 59 60 65
51 51 51 51 51 51 51 51 52 52 52 52 52 53 53 54 51 37 33 41 50 71 65 63 60 63 61 62 62 53 51 48 47 49 45 55 56 57 57 55 56 59 61 63 65
51 51 51 51 51 51 51 51 51 51 52 52 52 53 53 54 36 14 40 48 63 71 61 62 62 61 59 62 62 58 52 52 46 49 52 55 56 57 56 54 55 58 60 63 63
51 51 51 51 51 51 51 51 51 52 52 52 52 52 53 52 7 29 62 56 69 64 63 62 61 57 56 58 61 55 56 54 51 51 54 55 56 56 56 52 54 59 61 62 62
51 51 51 51 51 51 51 51 52 51 51 52 52 52 50 36 13 49 62 57 68 62 60 59 59 57 54 56 58 58 53 51 51 49 47 55 54 54 56 54 57 60 61 61 61
51 51 52 52 51 51 51 51 51 51 51 51 52 52 44 5 8 27 54 55 62 59 56 57 58 58 53 48 51 46 51 46 36 39 42 46 48 55 54 56 59 60 60 61 61
51 51 51 51 50 50 51 50 50 50 51 52 52 50 44 9 23 45 54 56 61 55 53 53 56 52 46 32 38 32 27 27 27 30 33 38 43 51 55 58 59 59 59 60 61
50 50 50 50 50 50 49 49 51 55 54 53 53 49 25 27 27 31 52 50 61 52 48 49 44 51 31 27 26 25 26 23 26 28 30 36 28 43 55 57 57 58 59 60 61
50 50 50 50 49 49 48 49 53 55 55 54 50 49 18 39 28 20 31 41 57 51 40 41 38 35 29 26 20 20 18 24 25 27 34 38 30 42 54 56 57 58 58 59 61
50 50 50 49 49 48 48 48 53 54 53 53 50 40 29 21 32 27 24 41 43 43 39 34 31 30 27 23 16 16 19 20 22 27 36 35 37 45 54 55 56 57 57 59 59
51 50 50 49 48 48 45 38 31 33 32 44 43 33 35 30 37 29 18 31 31 32 25 29 25 23 23 22 19 16 16 20 23 25 35 34 35 42 53 55 56 57 57 58 58
50 50 50 49 47 47 38 29 29 30 29 29 29 31 37 37 27 29 19 17 21 20 23 29 22 22 23 25 22 18 15 18 23 22 25 27 34 40 51 54 55 57 58 58 58
50 50 49 49 48 39 38 34 37 37 30 25 28 26 26 28 28 26 19 15 18 18 20 18 19 22 25 25 23 21 14 14 18 21 25 29 26 35 48 52 54 57 57 58 58
49 49 48 48 33 39 30 37 39 38 22 21 19 22 23 25 24 26 25 19 17 17 20 17 20 23 23 22 24 16 19 16 18 19 19 28 22 33 38 50 53 54 57 57 58
49 48 48 48 40 37 32 39 39 35 7 22 15 19 23 22 20 24 24 23 18 16 21 18 21 23 24 21 25 18 21 18 16 19 20 20 23 25 41 45 50 52 55 57 57
48 47 48 42 42 40 40 41 35 18 11 21 15 14 20 20 16 24 24 25 23 21 18 16 21 23 25 25 26 24 23 22 22 19 17 20 21 22 27 35 43 50 53 56 57
47 47 45 43 32 38 40 33 18 15 20 22 22 24 23 19 13 22 23 22 21 18 18 19 19 21 22 23 25 23 19 15 14 14 14 20 21 22 26 32 31 43 51 54 56
47 46 41 40 40 38 36 17 15 17 21 24 24 23 20 23 21 21 21 20 23 18 17 16 16 18 20 21 19 22 18 10 8 7 9 20 18 20 24 26 34 37 44 52 55
46 40 36 36 36 36 28 7 16 23 27 25 23 22 21 22 22 21 21 20 23 21 16 15 14 20 19 18 20 20 19 16 11 15 11 11 16 21 24 25 31 37 40 46 51
41 37 32 34 35 36 21 21 25 29 28 26 22 23 21 22 22 20 24 30 26 30 31 22 18 20 18 18 18 19 19 16 15 7 7 11 15 13 23 22 27 32 36 41 45
38 30 29 35 32 28 22 24 26 29 30 25 24 24 23 24 23 21 28 29 29 31 33 27 20 19 20 18 16 16 18 16 15 12 4 4 4 20 23 30 27 28 32 37 42
36 22 33 33 24 27 22 25 27 28 32 29 27 28 27 27 23 26 29 31 29 34 33 32 21 19 19 20 19 18 17 18 13 16 13 9 6 19 22 23 31 28 32 36 41
36 34 34 31 24 26 28 26 26 29 32 32 29 31 30 29 24 29 31 32 31 33 33 31 26 21 20 19 19 18 19 19 17 16 16 10 9 15 20 22 24 26 32 35 38
36 26 29 31 31 27 25 25 25 29 31 36 34 29 29 28 30 28 28 30 29 31 35 33 27 24 19 20 25 23 20 20 18 16 16 16 12 16 19 21 23 26 28 31 38
37 31 33 25 25 28 28 27 26 25 26 31 34 33 30 27 25 25 27 27 27 31 28 29 25 26 25 24 24 24 23 22 21 20 18 17 17 18 20 21 23 26 30 34 35
34 32 35 31 32 30 27 25 25 25 26 23 31 33 33 31 28 26 26 27 27 29 27 27 21 24 20 20 20 23 23 23 22 21 21 20 20 22 24 26 27 24 27 26 31
42 41 37 32 32 30 27 26 25 27 27 30 32 29 27 33 29 28 27 26 26 27 26 25 22 19 15 22 21 19 21 21 21 22 20 19 20 21 21 23 26 27 29 31 33

GFSSW_sfc_30mbdewp_036.txt.gz
Dewpoint
52 52 52 52 52 52 52 52 53 53 53 53 53 53 54 54 54 50 31 23 30 65 66 58 61 62 63 61 61 58 47 42 42 44 45 54 53 55 55 55 55 57 57 60 63
51 51 51 51 51 52 52 52 52 52 52 53 53 53 53 54 45 32 26 39 42 69 54 55 58 60 58 56 58 55 46 42 45 43 43 51 52 54 52 53 53 57 58 61 62
51 51 51 51 51 51 51 51 51 51 52 52 53 53 53 53 34 14 45 49 53 69 44 53 53 56 50 53 56 52 45 46 43 45 49 50 52 53 52 50 52 56 59 61 61
51 50 51 50 50 50 50 50 51 51 52 52 53 53 53 47 13 30 63 54 59 51 44 47 51 50 47 50 53 51 50 49 45 46 47 51 52 52 52 49 53 57 59 61 61
50 50 51 51 50 50 51 51 51 51 51 52 52 52 49 32 15 30 62 57 52 46 45 47 50 47 43 47 51 51 48 46 46 46 44 46 49 48 52 52 53 57 59 60 60
50 50 51 51 51 51 51 51 51 50 51 52 52 51 40 22 11 11 42 49 47 48 45 48 49 45 42 46 48 45 47 44 40 38 37 39 43 46 49 54 55 57 58 59 59
50 51 51 51 51 51 50 50 49 52 55 54 52 49 40 24 15 15 42 44 51 48 43 47 48 46 46 44 41 43 35 31 33 30 31 34 34 38 46 54 55 56 57 58 58
51 51 51 51 50 50 49 50 50 55 56 53 53 47 33 24 25 34 41 42 52 48 41 45 47 47 41 34 29 33 26 26 29 28 28 30 29 35 45 52 55 56 57 57 58
51 50 51 50 50 50 49 49 53 56 54 54 50 44 28 29 17 22 42 41 50 47 44 44 44 44 41 30 24 23 25 28 28 28 30 30 31 38 43 51 53 55 56 56 57
50 50 50 50 49 49 48 47 55 54 52 52 46 39 31 21 22 15 30 35 49 42 41 42 37 35 38 34 23 24 23 25 29 29 28 31 33 33 44 50 51 55 55 56 56
50 50 49 48 48 48 42 34 36 42 32 39 39 31 31 27 30 17 14 41 45 37 27 28 25 24 23 25 25 23 23 24 26 27 26 28 30 31 43 48 50 53 55 56 56
49 49 48 48 48 46 36 27 30 31 27 26 26 31 36 37 31 19 22 29 32 31 23 22 20 18 21 20 21 21 19 21 25 25 25 28 29 31 40 47 50 52 53 55 56
49 49 48 48 47 38 33 33 35 34 27 22 25 25 27 29 28 23 23 21 26 24 19 16 16 17 17 18 20 20 19 20 22 24 24 24 26 28 34 44 47 50 52 54 55
49 48 48 48 37 33 27 32 36 35 23 13 21 25 25 27 25 29 16 20 20 21 19 17 16 17 17 17 18 17 19 19 18 19 20 25 23 26 29 36 41 45 51 52 56
49 48 47 47 37 30 31 33 37 34 2 20 18 22 23 25 24 24 25 18 14 15 17 16 15 15 15 15 17 14 13 17 18 16 19 21 22 24 28 29 35 40 47 52 54
49 48 47 38 34 31 33 35 36 20 3 18 14 16 18 22 23 24 26 14 14 14 15 15 16 13 16 17 16 14 15 14 17 14 14 20 21 22 25 30 32 37 44 50 53
48 47 45 37 30 33 32 31 14 7 14 21 21 21 18 16 21 21 22 23 22 18 14 15 15 18 16 17 20 17 17 12 9 9 11 16 19 22 25 27 31 32 38 47 53
47 45 38 34 32 33 30 20 5 11 22 25 24 23 21 19 18 18 21 21 23 21 17 17 14 16 17 17 18 18 16 7 6 3 7 14 16 20 24 27 28 31 30 42 50
46 32 29 29 32 35 24 6 3 25 26 24 22 21 20 21 21 19 17 20 22 22 18 17 16 15 18 18 18 20 16 12 4 9 7 6 12 17 22 24 27 27 29 32 47
38 30 26 28 30 31 14 10 19 23 25 25 22 23 23 22 22 20 16 27 24 22 24 21 18 17 16 19 18 17 18 12 9 7 6 4 9 13 17 21 24 25 29 31 39
34 25 27 30 28 17 12 13 17 20 23 24 23 23 23 24 24 21 24 27 28 26 31 25 20 19 17 16 16 15 16 15 11 8 5 5 3 12 16 22 23 26 29 30 36
32 17 29 30 18 19 18 21 23 20 22 25 24 22 24 26 25 24 27 29 30 31 29 27 23 21 17 17 15 16 15 16 11 13 11 8 4 11 14 17 24 23 27 30 33
30 28 28 27 18 20 22 21 21 21 24 27 29 27 27 25 25 26 29 28 27 30 32 30 23 21 20 19 19 15 15 15 15 13 15 10 7 16 20 22 26 26 28 31 33
31 23 22 25 26 22 21 21 20 21 23 23 35 34 30 22 23 25 25 26 25 26 33 32 27 22 19 20 19 18 17 16 15 14 12 15 12 14 14 19 20 20 23 27 34
31 25 30 23 23 26 25 21 20 20 22 21 32 33 32 27 20 21 25 24 24 27 25 26 26 27 27 26 25 22 18 18 17 18 15 14 16 17 18 20 22 23 24 23 27
31 30 33 29 29 26 23 22 19 21 22 21 29 27 26 31 32 29 26 24 23 26 24 24 26 26 25 23 22 22 24 22 20 19 20 19 19 20 22 24 23 25 27 27 27
37 38 37 30 27 26 25 21 22 23 23 25 25 23 21 27 32 30 27 26 25 24 24 23 21 23 21 23 22 21 22 23 23 23 23 21 23 24 24 24 25 25 25 26 27

GFSSW_sfc_30mbdewp_042.txt.gz
Dewpoint
51 51 51 51 51 51 51 52 52 52 52 53 53 54 54 55 55 49 34 24 30 47 47 47 43 55 58 58 55 55 56 52 46 44 46 44 47 51 52 55 55 58 61 63 63
51 50 50 50 50 51 51 51 52 52 52 52 53 53 54 55 49 37 31 39 45 52 30 39 41 53 54 54 53 53 54 54 51 49 47 45 43 47 48 49 56 58 63 63 63
50 49 50 50 50 50 51 51 51 51 52 52 52 53 54 53 42 25 48 43 51 44 29 38 40 50 51 50 50 49 50 53 54 51 47 46 42 45 46 47 56 59 61 62 62
49 50 50 50 50 50 50 50 51 51 52 51 52 53 53 48 26 36 48 53 54 31 30 35 39 42 48 46 47 45 50 50 50 49 50 50 52 48 44 47 57 59 60 61 61
50 51 51 51 50 51 51 51 51 51 51 52 52 53 50 39 28 32 52 57 41 26 32 30 39 41 45 45 45 43 49 50 53 50 52 56 49 47 46 49 55 58 59 59 60
51 51 51 51 51 51 51 51 51 51 53 55 54 53 45 36 33 29 36 47 31 26 31 26 36 40 44 44 42 43 42 44 49 40 50 48 50 47 47 47 53 56 57 58 58
51 51 51 51 51 51 51 51 50 51 55 57 56 51 38 34 30 18 27 40 34 29 24 27 29 38 41 42 42 40 40 41 45 39 37 37 47 47 55 47 50 54 56 56 55
51 51 51 51 50 50 50 50 50 51 57 55 57 49 37 38 39 32 11 21 31 28 26 28 23 32 37 41 39 38 40 39 40 40 37 34 33 47 50 49 51 52 54 55 54
51 51 51 50 50 50 49 49 50 53 55 55 52 44 38 39 37 34 24 12 33 31 32 30 25 28 32 38 38 37 35 38 38 39 37 33 30 34 48 47 51 52 53 54 56
51 51 50 50 49 49 49 47 47 55 54 51 49 44 41 33 32 33 30 19 29 32 34 32 29 27 30 35 35 35 33 35 36 34 33 32 30 35 37 48 50 52 52 53 54
51 50 50 49 49 49 46 24 19 40 27 35 39 34 33 34 28 26 27 22 28 31 33 35 30 29 29 34 36 34 31 28 33 35 31 31 30 34 37 41 50 51 53 53 53
50 50 49 49 49 47 43 20 19 22 20 21 22 22 29 33 29 23 22 20 27 30 34 33 30 30 31 32 34 34 29 23 28 31 33 30 30 29 37 39 48 51 52 53 53
50 50 48 48 47 40 21 18 18 20 20 16 16 16 14 21 27 27 18 22 28 30 33 31 30 30 30 31 29 33 31 25 25 31 35 31 30 29 33 37 41 49 50 53 53
49 49 48 48 33 30 17 17 17 20 15 10 11 11 11 10 22 32 17 29 26 28 33 31 30 28 29 29 26 28 33 29 27 26 27 28 26 30 28 33 41 44 48 51 53
49 48 48 47 38 29 16 16 18 21 10 10 13 20 14 8 17 28 28 25 24 28 32 31 28 25 27 27 25 20 22 28 27 23 24 24 24 24 28 30 38 42 47 48 52
48 47 47 35 32 26 16 16 19 15 5 19 23 23 21 12 11 18 30 24 25 24 31 31 28 22 17 22 18 16 20 20 21 21 20 22 24 25 25 28 29 38 45 47 50
48 46 45 39 27 18 17 17 9 7 7 13 17 18 19 21 16 12 24 26 16 16 28 30 29 21 15 13 15 12 12 11 11 15 17 20 20 24 25 30 29 36 38 46 48
47 45 40 34 23 18 17 15 7 5 9 14 13 12 15 19 21 18 17 24 17 15 21 20 21 25 14 12 13 11 9 9 10 11 12 16 16 21 24 25 25 33 36 39 45
45 36 33 25 20 19 18 13 3 5 7 7 6 8 13 18 25 27 20 21 23 15 21 18 19 22 19 14 14 11 10 10 8 9 8 10 14 16 22 23 24 24 32 36 41
41 36 34 25 20 22 17 11 7 9 9 6 2 6 7 13 19 27 27 19 22 17 17 20 17 18 19 17 14 14 13 9 8 7 8 6 12 14 18 24 25 26 27 34 39
37 27 25 25 22 20 15 8 13 12 7 6 7 7 10 17 25 25 28 32 29 23 21 19 20 17 18 17 14 12 13 11 9 8 7 9 9 14 22 22 25 26 28 31 38
36 28 27 23 18 14 11 14 15 13 11 10 12 11 23 27 27 32 34 35 37 27 25 24 19 18 19 18 17 15 12 15 15 15 10 12 9 15 19 23 23 24 29 30 35
34 30 27 26 18 17 16 16 14 15 18 20 15 12 17 20 24 34 36 39 37 29 29 30 25 19 20 23 17 15 15 14 16 12 15 12 9 20 20 23 25 26 27 32 35
36 30 31 30 28 24 20 16 14 13 22 28 27 18 19 21 23 31 33 34 36 31 30 30 30 26 22 24 21 17 15 15 14 16 14 14 16 19 19 18 24 27 30 32 38
33 31 33 30 28 30 28 20 18 20 26 26 17 30 27 20 24 28 31 30 34 34 28 29 29 28 26 24 23 17 16 16 15 17 16 14 14 22 23 26 26 28 31 33 38
37 37 39 35 32 29 28 29 23 19 17 16 18 29 30 22 22 21 25 29 34 29 26 28 28 30 29 27 26 25 17 17 16 14 16 16 14 23 25 27 28 31 32 34 36
44 42 39 36 31 31 28 27 25 23 23 19 23 19 17 17 20 19 20 23 31 27 23 26 28 28 27 30 28 25 24 18 17 17 15 16 19 24 26 26 28 28 29 29 29

GFSSW_sfc_30mbdewp_045.txt.gz
Dewpoint
50 50 50 50 50 51 51 51 52 52 52 53 53 54 54 55 55 50 43 28 34 42 60 51 43 44 60 62 62 61 58 54 53 48 48 54 53 56 57 58 59 59 62 63 58
50 49 49 50 50 50 51 51 51 51 52 53 53 53 54 55 51 45 41 42 40 48 41 31 42 38 49 59 59 55 54 53 53 53 50 49 51 56 57 60 60 61 63 61 61
49 49 50 50 50 50 50 51 51 51 52 52 52 53 53 54 47 35 42 48 46 54 38 27 35 38 48 55 54 52 53 51 53 54 52 50 49 50 57 59 61 61 61 61 63
49 50 51 50 50 50 50 51 51 51 52 52 52 53 53 51 21 31 48 55 50 49 32 26 29 36 45 51 52 50 52 51 50 51 53 50 51 47 57 60 62 62 62 61 62
51 52 52 52 51 51 52 52 52 51 52 53 55 52 52 43 36 35 48 54 51 42 29 24 28 36 39 48 49 46 49 50 49 50 54 50 45 49 57 61 63 62 62 61 62
52 52 52 52 51 52 52 52 52 51 51 55 56 54 48 35 38 36 47 53 46 34 27 24 31 36 38 41 46 46 47 49 49 48 51 46 47 48 57 59 61 61 61 61 61
52 52 52 51 51 51 51 51 51 50 51 55 57 53 44 31 35 35 42 43 36 30 24 24 30 30 38 40 44 45 43 48 51 50 51 51 47 46 57 59 59 60 61 61 61
52 51 51 51 50 50 50 50 50 50 52 57 56 53 44 39 39 37 36 41 32 30 25 26 30 26 26 38 40 41 41 38 44 46 49 50 44 49 53 57 58 59 60 60 60
51 51 50 50 50 50 50 49 49 51 54 55 54 50 41 41 39 39 37 34 34 31 28 24 25 25 23 30 35 37 37 37 40 41 44 47 43 50 50 55 57 58 58 58 59
51 50 50 50 49 49 49 47 46 53 55 52 50 46 42 34 36 37 35 27 24 30 27 25 26 26 21 27 29 34 36 36 38 40 41 38 35 50 51 51 54 56 56 55 59
51 50 50 49 49 48 46 38 17 30 30 16 18 33 22 36 32 35 33 31 18 31 28 30 28 26 21 25 29 36 37 35 35 39 38 37 34 49 50 52 55 56 54 55 55
50 50 49 49 48 44 45 18 14 16 13 14 16 18 20 22 25 30 34 29 22 25 29 31 29 28 27 26 26 33 36 35 34 34 35 34 33 36 48 55 57 57 58 55 55
49 49 49 48 45 38 32 17 15 15 13 15 14 14 17 17 19 24 29 28 21 22 27 29 32 32 30 26 25 30 33 34 33 28 28 33 32 32 47 53 54 59 60 55 55
49 49 48 47 32 33 28 24 15 15 16 16 13 16 17 15 13 22 27 24 24 21 26 29 33 32 32 28 28 29 33 34 34 30 31 33 31 33 35 49 54 59 57 54 54
48 48 48 47 40 35 30 23 16 18 11 18 15 19 14 12 8 14 24 25 21 20 26 27 32 32 30 29 29 30 31 32 33 32 30 32 31 32 32 35 50 56 57 55 54
48 47 47 41 38 36 28 18 18 15 10 6 10 10 9 11 17 22 14 25 20 19 28 27 34 32 31 30 29 30 28 26 31 31 27 27 31 31 31 33 50 54 55 55 55
47 46 46 42 32 30 29 18 14 8 6 6 6 6 3 7 13 19 23 21 24 18 25 26 27 32 31 29 28 28 26 21 18 21 24 25 24 25 29 32 37 46 52 53 54
46 46 43 41 38 34 19 18 14 9 5 8 8 5 3 9 12 16 19 25 24 22 24 24 24 29 31 27 25 27 25 16 17 19 21 20 18 21 24 27 31 42 50 53 54
46 40 38 36 37 27 20 16 14 10 10 8 5 2 3 9 13 18 21 26 30 28 21 19 21 32 32 24 20 21 18 15 12 16 13 16 16 18 20 23 23 30 46 50 53
42 39 37 32 26 24 20 19 17 12 10 8 4 7 8 11 20 21 23 27 30 39 35 21 15 27 29 31 21 15 15 12 10 9 10 12 14 15 16 17 22 24 35 45 49
38 35 31 29 25 24 18 18 19 15 14 13 10 7 7 12 20 22 24 28 35 37 35 32 21 15 21 26 26 12 14 12 11 11 12 13 14 17 18 20 19 26 29 37 47
37 31 34 33 25 23 23 21 18 14 14 19 20 17 15 16 14 17 21 26 34 37 32 33 30 16 16 22 24 21 14 14 11 11 12 11 11 23 22 22 22 23 27 36 45
36 34 34 32 26 27 28 27 20 15 15 22 22 22 21 20 23 32 32 33 35 36 31 35 30 24 18 19 20 19 14 14 16 17 14 10 10 21 22 25 23 27 26 35 43
38 30 31 32 29 28 27 26 25 28 27 23 22 21 22 22 28 31 28 34 34 33 35 39 31 28 24 19 21 20 18 13 13 14 14 15 16 21 24 26 28 30 34 33 45
35 32 35 29 31 32 29 27 30 30 26 21 23 21 25 22 23 25 28 29 28 33 35 34 25 28 31 28 27 25 18 16 14 14 18 17 20 22 26 33 32 32 35 37 41
35 38 38 36 33 30 28 27 27 26 28 27 20 21 24 25 24 25 21 25 27 32 33 31 26 30 31 30 28 27 24 17 16 15 16 20 15 27 28 35 34 36 38 41 44
43 41 39 36 34 31 30 32 33 32 31 30 29 21 23 20 22 23 22 22 23 29 29 27 24 27 28 30 30 28 28 19 17 18 16 15 21 30 29 34 31 31 32 31 31

GFSSW_sfc_30mbdewp_048.txt.gz
Dewpoint
50 50 50 50 51 51 51 51 52 52 52 53 53 54 54 54 55 51 42 36 36 51 67 66 60 54 63 63 65 59 53 49 54 54 55 57 57 59 59 60 59 60 60 62 61
50 50 50 50 50 50 51 51 51 52 52 52 53 53 54 54 52 46 41 46 47 43 54 52 48 45 57 60 62 61 57 52 54 53 51 55 57 57 58 59 60 60 62 60 60
50 50 51 51 50 50 51 51 51 52 52 52 53 53 53 54 48 38 44 50 53 56 42 41 44 38 39 49 59 59 55 55 53 53 54 53 56 59 59 59 60 60 59 56 56
50 51 51 51 50 50 51 51 52 52 52 52 53 54 53 52 27 29 51 56 55 52 38 30 26 36 38 46 53 53 55 53 52 51 52 51 51 58 59 60 62 61 57 54 54
51 52 52 52 51 51 52 52 52 52 52 52 54 54 52 41 30 36 47 60 54 49 35 30 25 27 36 43 49 52 53 53 53 51 51 49 50 56 59 61 62 60 58 57 60
52 52 52 51 51 51 51 51 51 51 51 52 55 53 48 27 35 38 46 58 45 42 33 28 25 27 35 37 46 50 51 49 51 50 51 50 49 54 61 62 61 60 61 62 62
51 51 51 51 51 51 51 50 50 51 53 52 56 52 48 28 32 35 39 51 47 40 32 28 26 29 33 37 38 41 42 46 50 49 49 52 47 58 61 62 60 60 61 62 61
51 51 51 50 50 50 50 49 49 52 53 52 57 52 43 46 44 42 38 38 45 39 27 29 25 28 28 28 25 38 40 41 48 50 51 48 45 59 61 61 60 60 60 61 61
51 51 51 50 49 49 49 48 50 52 55 55 53 51 40 45 44 41 38 38 37 35 29 24 24 26 28 24 22 32 34 37 43 49 50 49 46 58 61 60 60 60 60 61 60
50 50 50 49 49 49 48 47 46 54 55 54 53 47 40 31 28 26 39 37 33 30 28 25 22 23 25 22 23 28 35 37 37 46 47 48 46 56 59 60 60 60 60 60 60
50 50 50 49 49 48 46 30 15 14 29 17 13 35 26 19 17 27 32 36 35 30 27 26 21 20 21 24 23 29 34 34 38 41 47 44 46 49 57 58 59 60 60 60 60
49 49 49 49 48 48 43 25 20 17 12 13 14 14 15 16 15 17 28 30 29 28 28 27 22 22 27 25 21 23 27 32 37 38 39 42 44 48 55 57 58 59 59 59 60
49 48 49 48 48 36 32 26 27 19 12 14 16 14 14 16 15 14 21 29 28 25 28 26 29 29 28 27 22 23 25 26 35 37 35 37 38 47 50 55 57 58 58 58 57
49 48 48 48 27 37 30 28 32 18 14 16 14 14 9 16 13 17 15 25 28 22 21 28 29 29 29 27 25 23 25 26 30 34 33 35 33 39 47 52 54 55 56 56 55
48 47 46 48 40 33 26 34 30 19 -4 13 8 10 6 8 11 19 21 23 25 25 20 21 27 28 28 28 29 25 26 26 29 32 33 32 33 35 47 52 52 53 53 53 56
48 46 47 42 43 35 36 33 21 14 5 7 8 6 3 7 10 16 19 23 26 25 25 22 25 28 29 31 31 29 28 29 30 29 29 31 31 32 45 51 53 51 53 54 56
46 46 47 45 26 32 36 22 14 8 9 8 7 4 3 12 11 18 18 20 29 31 22 22 21 26 31 30 32 31 28 26 26 26 25 30 30 30 45 51 52 52 55 55 55
46 46 45 43 40 39 32 19 14 13 9 10 8 4 8 19 17 18 20 19 32 35 33 17 16 22 27 31 31 29 28 27 25 22 22 25 27 28 29 37 52 53 55 56 53
46 40 39 38 38 37 26 17 16 18 13 12 8 5 8 9 16 21 21 24 28 34 32 31 18 26 28 28 31 29 26 26 21 18 19 21 22 24 24 26 48 53 55 56 54
43 39 36 33 32 27 20 18 19 19 14 12 15 9 8 12 16 18 19 22 22 31 35 34 30 25 26 27 29 28 27 24 21 20 13 14 16 20 20 18 25 50 54 55 53
39 34 36 33 31 24 22 21 22 18 16 19 19 16 17 18 18 15 18 18 28 32 34 34 31 28 23 19 27 26 23 23 23 17 14 11 12 16 16 17 17 37 52 53 52
40 30 35 33 28 28 27 28 28 27 26 23 22 21 19 19 22 20 24 29 30 36 32 35 35 32 26 21 20 31 21 18 15 13 12 14 12 15 16 18 19 19 48 51 52
38 36 35 31 27 28 29 29 27 29 27 23 21 21 21 21 22 27 27 28 32 36 36 37 35 29 24 22 19 17 26 15 14 13 11 10 10 15 17 22 28 25 26 49 51
40 32 33 33 32 32 31 30 28 30 30 28 26 22 24 23 27 25 28 33 34 32 35 40 36 33 29 27 27 20 18 20 13 11 11 12 11 12 13 16 23 27 27 38 49
38 33 36 28 30 32 32 29 28 27 28 29 27 26 25 24 23 23 27 26 27 34 36 37 30 30 29 28 28 28 24 21 15 13 12 12 16 16 16 19 32 30 33 41 49
36 35 36 34 35 32 31 30 33 32 32 31 30 30 31 25 24 21 25 24 25 33 35 36 29 29 24 28 30 29 28 26 18 14 16 14 15 18 22 37 37 41 37 43 49
41 42 38 36 34 33 32 33 33 34 33 32 32 32 29 28 26 24 25 25 29 29 31 32 29 27 24 30 30 28 28 30 24 16 15 15 18 28 36 45 45 34 39 45 47